Mitgliederbereich
Imprimable
Neupré, 10/03/2019, BEL - Condrusien 2019 - La Neupréenne
Liste der Berichte > Condrusien 11 km - Ergebnis
Suche: Seite: [1]
54 Eingaben
 
Les réclamations ne sont plus acceptées, les résultats sont considérés comme définitifs.
PlatzNrNameAgeNATLigaMannschaftRealZeitTkmMoy.ScrPtsStadt
1.631FWESPHAEL Evelyne39BELJCPMF TINLOT52:2552:274:47 12.5895CHÊNÉE
2.668FROSILLON Caroline32BELSER ATHL53:2953:314:52 12.34114GRIVEGNÉE
3.464FCOLLIGNON Céline34BELP855:4855:515:05 11.82142MARCHIN
4.8294FGRUSLIN Manon21BEL55:5556:025:06 11.78143MARCHIN
5.377FDEMOITIE Maude38BELJCMPF TINLOT56:2256:325:09 11.68147FRAITURE
6.671FBRUN Caroline37BELP856:4056:445:10 11.63148MARCHIN
7.642FLAMBOTTE Manon19BELSER ATHL56:5757:015:11 11.58153NANDRIN
8.8205FTHIRY Marie37BELJOGGING PLUS57:5557:575:17 11.39169ASSESSE
9.8364FLEGISA Stephanie34BEL1:00:171:00:225:30 10.93204SERAING
10.505FPAIRON Christelle39BELNEUPRÉ AC1:00:521:00:555:33 10.84217NEUPRÉ
11.8375FLISSOIR Louise Anne-Françoise25BEL1:00:551:01:135:34 10.78224HAMOIS
12.8010FLAETITIA Sevrin34BELRDV RUN BEYNE-HEUSAY1:01:301:02:095:39 10.62237LIÈGE
13.620FHAWOTTE Marine25BELTEAM MCP1:02:411:02:525:43 10.50247ESNEUX
14.8368FLEONARD Rosemonde29BELCO LIÈGE1:03:281:03:425:48 10.36257LIEGE
15.8001FBEAUVOIS Elise Bénédicte25BEL1:03:381:03:565:49 10.33262ASSESSE
16.8166FGESTER Celine27BEL1:04:191:04:415:53 10.21276NEUPRÉ
17.8300FMACHIELS Sophie30BEL1:04:511:05:035:55 10.15283HUY
18.8186FVAN DE VREKEN Anne34BEL1:05:351:05:375:58 10.06297NANDRIN
19.8393FFRANCILLON Johanna21BEL1:05:171:05:385:58 10.06298LIEGE
20.8012FPIRARD Severine18BELRDV RUN1:05:131:05:516:00 10.02300FLERON
21.487FROULET Manon28BEL1:07:091:07:346:09 9.77321HAMOIS
22.8353FPECHARD Virginie39BEL1:07:471:07:516:11 9.73324NEUPRÉ
23.8238FMOINEAU Audrey38BELI LOVE RUNNING1:07:561:08:126:12 9.68327LIEGE
24.665FDEGRANGE Valerie37BEL1:08:471:08:486:16 9.59335MODAVE
25.8022FMARCHAL Hélène Martine27BEL1:08:551:09:166:18 9.53342LIÈGE
26.646FPEERS Lea18BELNEUPRÉ AC1:09:131:09:376:20 9.48344NEUPRE
27.8244FHOET Charline31BEL1:09:261:09:476:21 9.46345TINLOT
28.8306FFALLAIS Anne38BEL1:09:261:09:476:21 9.46346FRAITURE
29.8370FCORVERS Sofie Laura28BEL1:09:531:10:166:24 9.39350CHAUDFONTAINE
30.8384FTHIRION Lyse28BEL1:10:361:10:366:26 9.35354HAVERSIN
31.8400FGATHY Vinciane39BEL1:11:331:11:426:32 9.21365TINLOT
32.8328FBARTELS Shirley29NLD1:11:431:11:506:32 9.19368LANAKEN
33.621FCLAVAREAU Cindy39BEL1:12:421:12:486:38 9.07379HUY
34.8151FJOHNEN Anne-Sophie21BEL1:12:531:13:086:39 9.03381NEUVILLE
35.513FBRAIBANT Lindsay31BEL1:13:151:13:366:42 8.97384HUY
36.8162FGILLOT Sarah26BEL/1:13:411:13:586:44 8.92389VISÉ
37.8303FDEBY Christelle26BEL1:13:451:13:596:44 8.92390CHÊNÉE
38.8007FERPICUM Alice38BEL1:14:381:14:546:49 8.81399ROTHEUX
39.615FLUISETTO Moira35BELLEGS GO1:14:471:15:076:50 8.79401HAVELANGE
40.8356FVANDELEENE Catherine39BEL1:15:231:15:416:53 8.72403NEUPRÉ
41.8388FLEMPEREUR Marie-Hélène25BEL1:15:341:15:456:54 8.71404CHANTEMELLE
42.8246FMOSSIAT Stephy27BEL1:15:331:16:026:55 8.68405AMAY
43.134FSIMON Cindy36BELSER ATHL1:16:091:16:286:58 8.63410SERAING
44.8104FBARLA Sophie36BELSERUNNERS1:16:411:16:446:59 8.60411SERAING
45.8350FMONSEUR Ludivine Myriam35BELI LOVE RUNNING1:16:331:17:017:01 8.57412NANDRIN
46.521FFRAIPONT Sophie39BEL1:16:471:17:057:01 8.56413CLAVIER
47.8273FDUQUENNE Isaline31BEL1:17:081:17:297:03 8.52417ESNEUX
48.8331FSCHAUS Julie33BEL1:17:111:17:337:03 8.51419LIÈGE
49.8404FFAUVARQUE Frederique36BEL1:15:521:17:557:05 8.47420VILMLERS LE TEMPLE
50.8005FNEUVILLE Aurore Françoise37BEL1:17:261:17:587:06 8.47422FLÉMALLE
51.8402FMAITE Henry35BEL1:18:231:18:237:08 8.42425NEUPRÉ
52.8387FPAULINE Lempereur28BEL1:20:511:21:017:22 8.15434BRUXELLES
53.8196FSAVONA Rosalia37BEL1:22:301:23:007:33 7.95446AMAY
54.8406FUWAYEZU HIRWE Jeanne D'Arc25BEL1:24:291:24:337:42 7.81454ENGIS
DNF: abandon; DSQ: disqualifié; Vitesse en km/h
Seite: [1]